Home   Weather   Kemi   Past weeks

Flag for Finland Past Weather in Kemi, Finland — Yesterday and Last 2 Weeks

Now
28 °F

Clear.


Feels Like: 28 °F
Forecast: 14 / 19 °F
Wind: 1 mph from Northwest

Location: Kemi Airport

Current Time: Dec 7, 2016 at 2:55:52 pm

Latest Report: Dec 7, 2016 at 2:20 pm


Visibility: 10 mi

Pressure: 29.53 "Hg

Humidity: 93%

Dew Point: 27 °F

Location of KemiLocation

Past Weather in Kemi — Graph

°F

Kemi Temperature Yesterday

Maximum temperature yesterday: 32 °F (at 11:20 pm)
Minimum temperature yesterday: -15 °F (at 10:50 am)
Average temperature yesterday: 1 °F

High & Low Weather Summary for the Past Weeks

 TemperatureHumidityPressure
High39 °F (Nov 22, 10:50 pm)100% (Nov 22, 1:20 pm)30.18 "Hg (Nov 22, 1:20 pm)
Low-15 °F (Dec 6, 10:50 am)76% (Dec 6, 8:50 am)29.09 "Hg (Nov 26, 10:50 am)
Average21 °F93%29.67 "Hg
* Reported Nov 22 1:20 pm — Dec 7 1:50 pm, Kemi, Weather by CustomWeather, © 2016

Note: Actual official high and low records may vary slightly from our data, if they occured in-between our weather recording intervals... More about our weather records

Advertising

Kemi Weather History for the Previous 24 Hours

Scroll right to see more
 ConditionsComfort  
Time TempWeatherWind HumidityBarometerVisibility
1:50 pm
Wed, Dec 7
28 °FSunny.3 mph100%29.53 "Hg10 mi
1:20 pm32 °FSunny.5 mph93%29.53 "Hg10 mi
12:50 pm32 °FSunny.7 mph93%29.53 "Hg10 mi
12:20 pm32 °FBroken clouds.5 mph100%29.53 "HgN/A
11:50 am28 °FLight snow. Partly sunny.2 mph100%29.56 "HgN/A
11:20 am27 °FPartly sunny.No wind100%29.56 "Hg3 mi
10:50 am27 °FIce fog.1 mph100%29.56 "HgN/A
10:20 am25 °FClear.No wind93%29.56 "Hg10 mi
9:50 am32 °FIce fog.2 mph93%29.56 "Hg1 mi
9:20 am32 °FClear.3 mph93%29.56 "Hg10 mi
8:50 am32 °FClear.3 mph93%29.56 "Hg10 mi
8:20 am32 °FClear.2 mph100%29.56 "Hg10 mi
7:50 am34 °FClear.8 mph93%29.56 "Hg10 mi
7:20 am34 °FPassing clouds.6 mph93%29.56 "HgN/A
6:50 am32 °FClear.1 mph93%29.56 "Hg10 mi
6:20 am34 °FClear.3 mph93%29.56 "Hg10 mi
5:50 am34 °FPassing clouds.5 mph93%29.56 "HgN/A
5:20 am34 °FClear.8 mph93%29.56 "Hg10 mi
4:50 am34 °FPassing clouds.9 mph87%29.56 "HgN/A
4:20 am34 °FClear.8 mph87%29.56 "Hg10 mi
3:50 am34 °FPassing clouds.9 mph87%29.56 "HgN/A
3:20 am34 °FPassing clouds.7 mph87%29.59 "HgN/A
2:50 am32 °FPassing clouds.7 mph93%29.59 "HgN/A
2:20 am32 °FOvercast.9 mph93%29.59 "HgN/A
1:50 am34 °FPassing clouds.14 mph87%29.62 "HgN/A
1:20 am34 °FPassing clouds.15 mph87%29.62 "HgN/A
12:50 am34 °FLow clouds.14 mph93%29.65 "HgN/A
12:20 am32 °FLight rain. Low clouds.16 mph100%29.68 "Hg4 mi
11:50 pm
Tue, Dec 6
32 °FRain. Low clouds.14 mph100%29.68 "Hg1 mi
11:20 pm32 °FSnow. Low clouds.15 mph100%29.71 "Hg1 mi
10:50 pm30 °FSnow. Low clouds.15 mph100%29.74 "Hg1 mi
10:20 pm30 °FLight snow. Mostly cloudy.17 mph93%29.80 "Hg1 mi
9:50 pm30 °FLight snow. Mostly cloudy.14 mph93%29.83 "Hg3 mi
9:20 pm30 °FMostly cloudy.10 mph93%29.83 "HgN/A
8:50 pm28 °FPassing clouds.8 mph100%29.86 "HgN/A
7:50 pm19 °FLow clouds.6 mph100%29.95 "HgN/A
7:20 pm19 °FLow clouds.5 mph93%29.98 "HgN/A
6:50 pm18 °FOvercast.3 mph93%30.01 "HgN/A
6:20 pm14 °FLow clouds.2 mph92%30.01 "HgN/A
5:50 pm12 °FSnow flurries. Mostly cloudy.2 mph92%30.04 "HgN/A
5:20 pm10 °FLight snow. Low clouds.3 mph85%30.07 "Hg4 mi
4:50 pm7 °FLight snow. Low clouds.2 mph85%30.07 "Hg5 mi
4:20 pm3 °FSnow flurries. Low clouds.2 mph92%30.09 "HgN/A
3:50 pm0 °FSnow flurries. Passing clouds.3 mph92%30.09 "HgN/A
3:20 pm0 °FPassing clouds.3 mph84%30.09 "HgN/A
2:50 pm-2 °FLow clouds.3 mph92%30.12 "Hg3 mi
2:20 pm0 °FSnow flurries. Low clouds.3 mph84%30.15 "Hg4 mi
Weather by CustomWeather, © 2016

See weather overviewHow to use our weather pages